DW1806 Weather Reports


Display with metric or nautical units.
time (UTC)temp
F
wind
direction
speed
MPH
gust
MPH
rain 1hr
in
rain 24hr
in
rain mn
in
humidity
%
barometer
mb
20260504021526 54 204 0.0 0.0 0.00 0.00 0.00 55 1008.1
20260504021024 54 215 0.0 0.0 0.00 0.00 0.00 56 1008.1
20260504020522 53 175 0.0 0.0 0.00 0.00 0.00 56 1008.1
20260504020034 53 225 0.0 0.0 0.00 0.00 0.00 56 1008.1
20260504015520 53 219 0.0 0.0 0.00 0.00 0.00 56 1008.1
20260504015018 53 232 0.0 0.0 0.00 0.00 0.00 57 1008.1
20260504014521 53 217 0.0 0.0 0.00 0.00 0.00 57 1008.1
20260504014019 54 172 0.0 0.0 0.00 0.00 0.00 56 1008.0
20260504013514 54 209 0.0 0.0 0.00 0.00 0.00 54 1008.1
20260504013013 54 227 0.0 0.0 0.00 0.00 0.00 53 1008.1
20260504012511 55 174 0.0 0.0 0.00 0.00 0.00 52 1008.0
20260504012011 55 261 0.0 0.0 0.00 0.00 0.00 51 1008.1
20260504011507 55 219 0.0 0.0 0.00 0.00 0.00 52 1008.2
20260504011006 55 240 0.0 0.0 0.00 0.00 0.00 51 1008.1
20260504010509 55 205 0.0 0.0 0.00 0.00 0.00 51 1008.1
20260504010005 55 242 0.0 0.0 0.00 0.00 0.00 51 1008.1
20260504005504 55 242 0.0 0.0 0.00 0.00 0.00 52 1008.1
20260504005004 55 203 0.0 0.0 0.00 0.00 0.00 52 1007.9
20260504004508 55 232 0.0 0.0 0.00 0.00 0.00 52 1008.0
20260504004002 54 283 0.0 0.0 0.00 0.00 0.00 53 1008.0
20260504003502 54 202 0.0 0.0 0.00 0.00 0.00 54 1007.9
20260504003002 54 229 0.0 0.0 0.00 0.00 0.00 54 1007.9
20260504002502 54 234 0.0 0.0 0.00 0.00 0.00 54 1007.9
20260504002002 54 250 0.0 0.0 0.00 0.00 0.00 55 1008.0
20260504001504 54 232 0.0 0.0 0.00 0.00 0.00 56 1008.0
20260504001059 54 259 0.0 0.0 0.00 0.00 0.00 56 1008.0
20260504000558 54 273 0.0 0.0 0.00 0.00 0.00 56 1008.0
20260504000106 54 258 0.0 0.0 0.00 0.00 0.00 56 1008.1
20260503235555 54 191 0.0 0.0 0.00 0.00 0.00 56 1008.1
20260503235055 54 270 0.0 0.0 0.00 0.00 0.00 56 1008.3
20260503234555 54 230 0.0 0.0 0.00 0.00 0.00 55 1008.2
20260503234055 54 228 0.0 0.0 0.00 0.00 0.00 55 1008.3
20260503233556 54 187 0.0 0.0 0.00 0.00 0.00 55 1008.3
20260503233054 54 259 0.0 0.0 0.00 0.00 0.00 55 1008.3
20260503232552 54 265 0.0 0.0 0.00 0.00 0.00 56 1008.3
20260503232052 54 227 0.0 0.0 0.00 0.00 0.00 57 1008.3
20260503231552 54 223 0.0 0.0 0.00 0.00 0.00 58 1008.3
20260503231056 54 251 0.0 0.0 0.00 0.00 0.00 59 1008.3
20260503230555 54 264 0.0 0.0 0.00 0.00 0.00 58 1008.3
20260503230052 54 211 0.0 0.0 0.00 0.00 0.00 59 1008.4
20260503225551 54 252 0.0 0.0 0.00 0.00 0.00 59 1008.4
20260503225051 54 218 0.0 0.0 0.00 0.00 0.00 59 1008.4
20260503224559 54 202 0.0 0.0 0.00 0.00 0.00 59 1008.5
20260503224051 54 270 0.0 0.0 0.00 0.00 0.00 59 1008.5
20260503223550 54 252 0.0 0.0 0.00 0.00 0.00 58 1008.4
20260503223051 54 246 0.0 0.0 0.00 0.00 0.00 58 1008.4
20260503222550 54 257 0.0 0.0 0.00 0.00 0.00 58 1008.5
20260503222053 53 311 0.0 0.0 0.00 0.00 0.00 59 1008.5
20260503221559 53 278 0.0 0.0 0.00 0.00 0.00 60 1008.5
20260503221053 53 219 0.0 0.0 0.00 0.00 0.00 59 1008.5
20260503220550 53 190 0.0 0.0 0.00 0.00 0.00 60 1008.5
20260503220049 53 260 0.0 0.0 0.00 0.00 0.00 59 1008.4
20260503215548 53 250 0.0 0.0 0.00 0.00 0.00 60 1008.4
20260503215048 53 204 0.0 0.0 0.00 0.00 0.00 60 1008.4
20260503214548 53 252 0.0 0.0 0.00 0.00 0.00 59 1008.3
20260503214048 53 203 0.0 0.0 0.00 0.00 0.00 59 1008.3
20260503213550 53 207 0.0 0.0 0.00 0.00 0.00 59 1008.3
20260503213048 53 177 0.0 0.0 0.00 0.00 0.00 58 1008.2
20260503212548 53 266 0.0 0.0 0.00 0.00 0.00 59 1008.3
20260503212048 53 263 0.0 0.0 0.00 0.00 0.00 58 1008.2
20260503211550 53 184 0.0 0.0 0.00 0.00 0.00 58 1008.1
20260503211046 53 223 0.0 0.0 0.00 0.00 0.00 58 1008.2
20260503210547 53 264 0.0 0.0 0.00 0.00 0.00 59 1008.3
20260503210047 53 211 0.0 0.0 0.00 0.00 0.00 59 1008.2
20260503205546 52 227 0.0 0.0 0.00 0.00 0.00 59 1008.3
20260503205046 52 202 0.0 0.0 0.00 0.00 0.00 59 1008.2
20260503204601 52 219 0.0 0.0 0.00 0.00 0.00 59 1008.4
20260503204045 53 238 0.0 0.0 0.00 0.00 0.00 58 1008.4
20260503203545 53 250 0.0 0.0 0.00 0.00 0.00 57 1008.4
20260503203046 53 227 0.0 0.0 0.00 0.00 0.00 58 1008.6
20260503202545 53 231 0.0 0.0 0.00 0.00 0.00 58 1008.5
20260503202043 53 221 0.0 0.0 0.00 0.00 0.00 58 1008.6
20260503201543 53 280 0.0 0.0 0.00 0.00 0.00 57 1008.7
20260503201043 53 200 0.0 0.0 0.00 0.00 0.00 56 1008.6
20260503200542 53 222 0.0 0.0 0.00 0.00 0.00 56 1008.8
20260503200042 54 229 0.0 0.0 0.00 0.00 0.00 56 1008.8
20260503195542 54 229 0.0 0.0 0.00 0.00 0.00 56 1008.9
20260503195041 54 192 0.0 0.0 0.00 0.00 0.00 55 1008.9
20260503194545 54 250 0.0 0.0 0.00 0.00 0.00 54 1009.0
20260503194040 54 203 0.0 0.0 0.00 0.00 0.00 54 1009.0
20260503193540 54 228 0.0 0.0 0.00 0.00 0.00 53 1009.1
20260503193045 54 196 0.0 0.0 0.00 0.00 0.00 53 1009.1
20260503192538 54 198 0.0 0.0 0.00 0.00 0.00 53 1009.5
20260503192039 54 238 0.0 0.0 0.00 0.00 0.00 52 1009.6
20260503191603 54 202 0.0 0.0 0.00 0.00 0.00 53 1009.7
20260503191039 54 192 0.0 0.0 0.00 0.00 0.00 52 1009.8
20260503190537 53 265 0.0 0.0 0.00 0.00 0.00 53 1009.8
20260503190036 53 250 0.0 0.0 0.00 0.00 0.00 53 1009.9
20260503185535 53 235 0.0 0.0 0.00 0.00 0.00 52 1010.0
20260503185036 54 205 0.0 0.0 0.00 0.00 0.00 50 1010.0
20260503184537 54 221 0.0 0.0 0.00 0.00 0.00 50 1010.0
20260503184035 54 280 0.0 0.0 0.00 0.00 0.00 48 1009.9
20260503183535 54 246 0.0 0.0 0.00 0.00 0.00 48 1010.0
20260503183033 54 257 0.0 0.0 0.00 0.00 0.00 47 1010.0
20260503182534 54 211 0.0 0.0 0.00 0.00 0.00 46 1010.1
20260503182032 54 207 0.0 0.0 0.00 0.00 0.00 45 1010.2
20260503181544 54 273 0.0 0.0 0.00 0.00 0.00 45 1010.3
20260503181031 54 274 0.0 0.0 0.00 0.00 0.00 45 1010.3
20260503180530 53 235 0.0 0.0 0.00 0.00 0.00 46 1010.4
20260503180030 53 215 0.0 0.0 0.00 0.00 0.00 45 1010.5
20260503175528 53 186 0.0 0.0 0.00 0.00 0.00 44 1010.5
20260503175029 53 239 0.0 0.0 0.00 0.00 0.00 51 1010.5
20260503174526 52 161 0.0 0.0 0.00 0.00 0.00 52 1010.6
20260503174025 51 225 0.0 0.0 0.00 0.00 0.00 53 1010.8
20260503173524 50 171 0.0 0.0 0.00 0.00 0.00 55 1011.1
20260503173023 50 212 0.0 0.0 0.00 0.00 0.00 57 1011.1
20260503172522 50 236 0.0 0.0 0.00 0.00 0.00 58 1011.2
20260503172022 50 193 0.0 0.0 0.00 0.00 0.00 58 1011.2
20260503171522 51 239 0.0 0.0 0.00 0.00 0.00 61 1011.2
20260503171021 51 240 0.0 0.0 0.00 0.00 0.00 59 1011.2
20260503170524 51 278 0.0 0.0 0.00 0.00 0.00 62 1011.4
20260503150512 50 199 0.0 0.0 0.00 0.00 0.00 53 1012.5
20260503131057 46 266 0.0 0.0 0.00 0.00 0.00 74 1012.8
20260503130556 46 252 0.0 0.0 0.00 0.00 0.00 74 1012.8
20260503110542 34 201 0.0 0.0 0.00 0.00 0.00 83 1012.9
20260503081539 34 207 0.0 0.0 0.00 0.00 0.00 83 1013.3
20260503081031 34 207 0.0 0.0 0.00 0.00 0.00 83 1013.3
20260503080531 34 207 0.0 0.0 0.00 0.00 0.00 84 1013.4
20260503072528 33 207 0.0 0.0 0.00 0.00 0.00 85 1013.2
20260503072028 33 207 0.0 0.0 0.00 0.00 0.00 85 1013.2
20260503071530 33 207 0.0 0.0 0.00 0.00 0.00 85 1013.1
20260503071027 33 207 0.0 0.0 0.00 0.00 0.00 85 1013.0
20260503070526 33 207 0.0 0.0 0.00 0.00 0.00 85 1013.0
20260503055020 34 207 0.0 0.0 0.00 0.00 0.00 81 1013.4
20260503054516 34 207 0.0 0.0 0.00 0.00 0.00 81 1013.5
20260503054014 34 207 0.0 0.0 0.00 0.00 0.00 80 1013.4
20260503053513 35 207 0.0 0.0 0.00 0.00 0.00 80 1013.4
20260503053012 35 207 0.0 0.0 0.00 0.00 0.00 80 1013.5
20260503052511 35 207 0.0 0.0 0.00 0.00 0.00 80 1013.5
20260503052010 35 207 0.0 0.0 0.00 0.00 0.00 79 1013.6
20260503051509 35 207 0.0 0.0 0.00 0.00 0.00 79 1013.6
20260503051008 36 207 0.0 0.0 0.00 0.00 0.00 78 1013.6
20260503050507 36 207 0.0 0.0 0.00 0.00 0.00 78 1013.7
20260503050006 36 207 0.0 0.0 0.00 0.00 0.00 77 1013.6
20260503045506 37 207 0.0 0.0 0.00 0.00 0.00 77 1013.8
20260503045005 37 207 0.0 0.0 0.00 0.00 0.00 76 1013.8
20260503044505 37 207 0.0 0.0 0.00 0.00 0.00 76 1013.8
20260503044003 38 207 0.0 0.0 0.00 0.00 0.00 75 1013.8
20260503043502 38 207 0.0 0.0 0.00 0.00 0.00 74 1013.8
20260503043100 39 207 0.0 0.0 0.00 0.00 0.00 74 1013.8
20260503042559 39 207 0.0 0.0 0.00 0.00 0.00 73 1013.8
20260503042058 39 207 0.0 0.0 0.00 0.00 0.00 73 1013.8
20260503041558 40 207 0.0 0.0 0.00 0.00 0.00 73 1013.9
20260503041100 40 207 0.0 0.0 0.00 0.00 0.00 72 1014.0
20260503040556 40 207 0.0 0.0 0.00 0.00 0.00 72 1014.0
20260503040056 40 207 0.0 0.0 0.00 0.00 0.00 72 1013.9
20260503035555 40 207 0.0 0.0 0.00 0.00 0.01 72 1013.9
20260503035055 41 207 0.0 0.0 0.00 0.00 0.01 72 1014.0
20260503034554 41 207 0.0 0.0 0.00 0.00 0.01 72 1013.9
20260503034054 41 207 0.0 0.0 0.00 0.00 0.01 72 1013.9
20260503033553 41 207 0.0 0.0 0.00 0.00 0.01 72 1013.9
20260503033056 41 207 0.0 0.0 0.00 0.00 0.01 72 1013.9
20260503032553 41 207 0.0 0.0 0.00 0.00 0.01 72 1014.0
20260503032053 41 207 0.0 0.0 0.00 0.00 0.01 72 1013.9
20260503031553 41 207 0.0 0.0 0.00 0.00 0.01 72 1013.9
20260503031053 41 207 0.0 0.0 0.00 0.00 0.01 71 1013.9
20260503030553 41 207 0.0 0.0 0.00 0.00 0.01 71 1013.9
20260503030052 41 207 0.0 0.0 0.00 0.00 0.01 71 1014.0
20260503025552 41 207 0.0 0.0 0.00 0.00 0.01 71 1014.0
20260503025052 41 207 0.0 0.0 0.00 0.00 0.01 71 1014.1
20260503024552 42 207 0.0 0.0 0.00 0.00 0.01 70 1014.2
20260503024052 42 207 0.0 0.0 0.00 0.00 0.01 70 1014.2
20260503023552 42 207 0.0 0.0 0.00 0.00 0.01 70 1014.3
20260503023055 42 207 0.0 0.0 0.00 0.00 0.01 70 1014.2
20260503022550 42 207 0.0 0.0 0.00 0.00 0.01 69 1014.3
20260503022050 42 217 0.0 0.0 0.00 0.00 0.01 69 1014.3